| time (UTC) | temp C | wind direction | speed KPH | gust KPH | rain 1hr cm | rain 24hr cm | rain mn cm | humidity % | barometer mb |
| 20260504160104 | 21 | 176 | 1.6 | 9.7 | 0.00 | 0.00 | 0.00 | 58 | 1016.8 |
| 20260504151056 | 20 | 151 | 1.6 | 6.4 | 0.00 | 0.00 | 0.00 | 61 | 1017.0 |
| 20260504150556 | 19 | 227 | 0.0 | 9.7 | 0.00 | 0.00 | 0.00 | 63 | 1017.0 |
| 20260504141056 | 17 | 0 | 0.0 | 4.8 | 0.00 | 0.00 | 0.00 | 67 | 1017.3 |
| 20260504140556 | 16 | 219 | 1.6 | 6.4 | 0.00 | 0.00 | 0.00 | 66 | 1017.4 |
| 20260504130555 | 13 | 0 | 0.0 | 0.0 | 0.00 | 0.00 | 0.00 | 76 | 1017.7 |
| 20260504120130 | 8 | 0 | 0.0 | 0.0 | 0.00 | 0.00 | 0.00 | 97 | 1017.2 |
| 20260504110558 | 6 | 0 | 0.0 | 0.0 | 0.00 | 0.00 | 0.00 | 96 | 1016.8 |
| 20260504100552 | 7 | 0 | 0.0 | 0.0 | 0.00 | 0.00 | 0.00 | 96 | 1016.6 |
| 20260504081610 | 7 | 0 | 0.0 | 0.0 | 0.00 | 0.00 | 0.00 | 95 | 1016.7 |
| 20260504081056 | 7 | 0 | 0.0 | 0.0 | 0.00 | 0.00 | 0.00 | 95 | 1016.7 |
| 20260504080556 | 7 | 0 | 0.0 | 0.0 | 0.00 | 0.00 | 0.00 | 95 | 1016.8 |
| 20260504080106 | 7 | 0 | 0.0 | 0.0 | 0.00 | 0.00 | 0.00 | 95 | 1016.7 |
| 20260504050556 | 8 | 0 | 0.0 | 0.0 | 0.00 | 0.00 | 0.00 | 91 | 1018.1 |
| 20260504045600 | 8 | 0 | 0.0 | 0.0 | 0.00 | 0.00 | 0.00 | 91 | 1018.0 |
| 20260504045055 | 8 | 0 | 0.0 | 0.0 | 0.00 | 0.00 | 0.00 | 91 | 1017.9 |
| 20260504044554 | 8 | 0 | 0.0 | 0.0 | 0.00 | 0.00 | 0.00 | 90 | 1017.9 |
| 20260504044055 | 8 | 0 | 0.0 | 0.0 | 0.00 | 0.00 | 0.00 | 90 | 1018.0 |
| 20260504043555 | 8 | 0 | 0.0 | 0.0 | 0.00 | 0.00 | 0.00 | 90 | 1017.9 |
| 20260504043112 | 8 | 0 | 0.0 | 0.0 | 0.00 | 0.00 | 0.00 | 89 | 1018.0 |
| 20260504042554 | 8 | 0 | 0.0 | 0.0 | 0.00 | 0.00 | 0.00 | 88 | 1018.1 |
| 20260504042059 | 8 | 0 | 0.0 | 0.0 | 0.00 | 0.00 | 0.00 | 87 | 1018.1 |
| 20260504041558 | 8 | 0 | 0.0 | 0.0 | 0.00 | 0.00 | 0.00 | 88 | 1017.9 |
| 20260504041056 | 8 | 0 | 0.0 | 0.0 | 0.00 | 0.00 | 0.00 | 88 | 1017.8 |
| 20260504040600 | 8 | 0 | 0.0 | 0.0 | 0.00 | 0.00 | 0.00 | 88 | 1017.8 |
| 20260504040058 | 8 | 0 | 0.0 | 0.0 | 0.00 | 0.00 | 0.00 | 89 | 1017.8 |
| 20260504035558 | 8 | 0 | 0.0 | 0.0 | 0.00 | 0.00 | 0.00 | 89 | 1017.9 |
| 20260504035056 | 8 | 0 | 0.0 | 0.0 | 0.00 | 0.00 | 0.00 | 89 | 1018.0 |
| 20260504034556 | 8 | 0 | 0.0 | 0.0 | 0.00 | 0.00 | 0.00 | 88 | 1018.1 |
| 20260504034055 | 8 | 0 | 0.0 | 0.0 | 0.00 | 0.00 | 0.00 | 88 | 1018.1 |
| 20260504033555 | 8 | 0 | 0.0 | 0.0 | 0.00 | 0.00 | 0.00 | 87 | 1018.1 |
| 20260504033104 | 8 | 0 | 0.0 | 0.0 | 0.00 | 0.00 | 0.00 | 86 | 1018.2 |
| 20260504032555 | 9 | 0 | 0.0 | 0.0 | 0.00 | 0.00 | 0.00 | 86 | 1018.3 |
| 20260504032055 | 8 | 0 | 0.0 | 0.0 | 0.00 | 0.00 | 0.00 | 86 | 1018.4 |
| 20260504031558 | 8 | 0 | 0.0 | 0.0 | 0.00 | 0.00 | 0.00 | 86 | 1018.4 |
| 20260504031056 | 9 | 0 | 0.0 | 0.0 | 0.00 | 0.00 | 0.00 | 86 | 1018.5 |
| 20260504030556 | 9 | 0 | 0.0 | 0.0 | 0.00 | 0.00 | 0.00 | 86 | 1018.5 |
| 20260504030114 | 9 | 0 | 0.0 | 0.0 | 0.00 | 0.00 | 0.00 | 85 | 1018.6 |
| 20260504025556 | 10 | 0 | 0.0 | 0.0 | 0.00 | 0.00 | 0.00 | 85 | 1018.6 |
| 20260504025056 | 10 | 0 | 0.0 | 0.0 | 0.00 | 0.00 | 0.00 | 84 | 1018.5 |
| 20260504024555 | 10 | 0 | 0.0 | 0.0 | 0.00 | 0.00 | 0.00 | 84 | 1018.5 |
| 20260504024055 | 10 | 0 | 0.0 | 0.0 | 0.00 | 0.00 | 0.00 | 84 | 1018.4 |
| 20260504023556 | 10 | 0 | 0.0 | 0.0 | 0.00 | 0.00 | 0.00 | 84 | 1018.3 |
| 20260504023058 | 10 | 0 | 0.0 | 0.0 | 0.00 | 0.00 | 0.00 | 81 | 1018.3 |
| 20260504022559 | 10 | 0 | 0.0 | 0.0 | 0.00 | 0.00 | 0.00 | 82 | 1018.3 |
| 20260504022058 | 10 | 0 | 0.0 | 0.0 | 0.00 | 0.00 | 0.00 | 83 | 1018.2 |
| 20260504021557 | 10 | 0 | 0.0 | 0.0 | 0.00 | 0.00 | 0.00 | 82 | 1018.1 |
| 20260504021055 | 10 | 0 | 0.0 | 0.0 | 0.00 | 0.00 | 0.00 | 80 | 1018.1 |
| 20260504020559 | 10 | 0 | 0.0 | 0.0 | 0.00 | 0.00 | 0.00 | 82 | 1018.0 |
| 20260504015555 | 11 | 0 | 0.0 | 0.0 | 0.00 | 0.00 | 0.00 | 81 | 1017.9 |
| 20260504015055 | 11 | 0 | 0.0 | 0.0 | 0.00 | 0.00 | 0.00 | 76 | 1017.8 |
| 20260504014604 | 11 | 0 | 0.0 | 0.0 | 0.00 | 0.00 | 0.00 | 80 | 1017.8 |
| 20260504014056 | 11 | 0 | 0.0 | 0.0 | 0.00 | 0.00 | 0.00 | 80 | 1017.7 |
| 20260504013556 | 11 | 0 | 0.0 | 0.0 | 0.00 | 0.00 | 0.00 | 80 | 1017.6 |
| 20260504013056 | 11 | 0 | 0.0 | 0.0 | 0.00 | 0.00 | 0.00 | 81 | 1017.6 |
| 20260504012556 | 11 | 0 | 0.0 | 0.0 | 0.00 | 0.00 | 0.00 | 79 | 1017.5 |
| 20260504012056 | 11 | 0 | 0.0 | 0.0 | 0.00 | 0.00 | 0.00 | 79 | 1017.4 |
| 20260504011556 | 12 | 0 | 0.0 | 0.0 | 0.00 | 0.00 | 0.00 | 79 | 1017.4 |
| 20260504011055 | 12 | 0 | 0.0 | 0.0 | 0.00 | 0.00 | 0.00 | 78 | 1017.3 |
| 20260504010556 | 12 | 0 | 0.0 | 0.0 | 0.00 | 0.00 | 0.00 | 76 | 1017.3 |
| 20260504010101 | 12 | 0 | 0.0 | 1.6 | 0.00 | 0.00 | 0.00 | 77 | 1017.4 |
| 20260504005556 | 12 | 0 | 0.0 | 1.6 | 0.00 | 0.00 | 0.00 | 73 | 1017.4 |
| 20260504005055 | 13 | 0 | 0.0 | 1.6 | 0.00 | 0.00 | 0.00 | 76 | 1017.4 |
| 20260504004556 | 13 | 0 | 0.0 | 0.0 | 0.00 | 0.00 | 0.00 | 73 | 1017.4 |
| 20260504004056 | 13 | 0 | 0.0 | 0.0 | 0.00 | 0.00 | 0.00 | 76 | 1017.3 |
| 20260504003555 | 13 | 0 | 0.0 | 0.0 | 0.00 | 0.00 | 0.00 | 74 | 1017.4 |
| 20260504003054 | 13 | 0 | 0.0 | 0.0 | 0.00 | 0.00 | 0.00 | 73 | 1017.3 |
| 20260504002555 | 14 | 0 | 0.0 | 0.0 | 0.00 | 0.00 | 0.00 | 70 | 1017.4 |
| 20260504002055 | 15 | 0 | 0.0 | 0.0 | 0.00 | 0.00 | 0.00 | 71 | 1017.5 |
| 20260504001600 | 15 | 0 | 0.0 | 0.0 | 0.00 | 0.00 | 0.00 | 70 | 1017.5 |
| 20260504001055 | 15 | 0 | 0.0 | 0.0 | 0.00 | 0.00 | 0.00 | 66 | 1017.5 |
| 20260504000556 | 15 | 0 | 0.0 | 3.2 | 0.00 | 0.00 | 0.00 | 61 | 1017.6 |
| 20260504000103 | 16 | 0 | 0.0 | 3.2 | 0.00 | 0.00 | 0.00 | 61 | 1017.6 |
| 20260503235556 | 16 | 0 | 0.0 | 3.2 | 0.00 | 0.00 | 0.00 | 55 | 1017.6 |
| 20260503235056 | 17 | 0 | 0.0 | 0.0 | 0.00 | 0.00 | 0.00 | 49 | 1017.5 |
| 20260503234555 | 17 | 0 | 0.0 | 3.2 | 0.00 | 0.00 | 0.00 | 49 | 1017.6 |
| 20260503234056 | 17 | 0 | 0.0 | 3.2 | 0.00 | 0.00 | 0.00 | 48 | 1017.7 |
| 20260503233558 | 17 | 0 | 0.0 | 1.6 | 0.00 | 0.00 | 0.00 | 48 | 1017.7 |
| 20260503233102 | 17 | 0 | 0.0 | 8.0 | 0.00 | 0.00 | 0.00 | 45 | 1017.7 |
| 20260503232600 | 18 | 0 | 0.0 | 8.0 | 0.00 | 0.00 | 0.00 | 43 | 1017.7 |
| 20260503232055 | 18 | 0 | 1.6 | 8.0 | 0.00 | 0.00 | 0.00 | 40 | 1017.8 |
| 20260503231556 | 18 | 319 | 1.6 | 6.4 | 0.00 | 0.00 | 0.00 | 41 | 1017.9 |
| 20260503231055 | 18 | 326 | 0.0 | 8.0 | 0.00 | 0.00 | 0.00 | 41 | 1017.9 |
| 20260503230556 | 18 | 0 | 0.0 | 8.0 | 0.00 | 0.00 | 0.00 | 43 | 1017.9 |
| 20260503230111 | 18 | 0 | 0.0 | 8.0 | 0.00 | 0.00 | 0.00 | 41 | 1017.9 |
| 20260503225555 | 18 | 0 | 0.0 | 4.8 | 0.00 | 0.00 | 0.00 | 40 | 1018.0 |
| 20260503225055 | 18 | 0 | 1.6 | 4.8 | 0.00 | 0.00 | 0.00 | 43 | 1018.0 |
| 20260503224556 | 18 | 0 | 0.0 | 6.4 | 0.00 | 0.00 | 0.00 | 46 | 1018.0 |
| 20260503224056 | 18 | 0 | 0.0 | 6.4 | 0.00 | 0.00 | 0.00 | 45 | 1018.0 |
| 20260503223556 | 18 | 0 | 0.0 | 6.4 | 0.00 | 0.00 | 0.00 | 42 | 1018.0 |
| 20260503223109 | 18 | 249 | 0.0 | 4.8 | 0.00 | 0.00 | 0.00 | 44 | 1018.0 |
| 20260503222556 | 18 | 189 | 0.0 | 14.5 | 0.00 | 0.00 | 0.00 | 48 | 1018.0 |
| 20260503222056 | 18 | 0 | 0.0 | 14.5 | 0.00 | 0.00 | 0.00 | 41 | 1018.1 |
| 20260503221555 | 18 | 292 | 1.6 | 8.0 | 0.00 | 0.00 | 0.00 | 46 | 1018.1 |
| 20260503221056 | 18 | 187 | 0.0 | 6.4 | 0.00 | 0.00 | 0.00 | 48 | 1018.3 |
| 20260503220556 | 18 | 0 | 0.0 | 14.5 | 0.00 | 0.00 | 0.00 | 42 | 1018.3 |
| 20260503220055 | 18 | 0 | 0.0 | 14.5 | 0.00 | 0.00 | 0.00 | 44 | 1018.3 |
| 20260503215556 | 18 | 0 | 3.2 | 14.5 | 0.00 | 0.00 | 0.00 | 41 | 1018.3 |
| 20260503215055 | 18 | 0 | 1.6 | 8.0 | 0.00 | 0.00 | 0.00 | 39 | 1018.3 |
| 20260503214559 | 18 | 0 | 0.0 | 8.0 | 0.00 | 0.00 | 0.00 | 44 | 1018.3 |
| 20260503214055 | 18 | 0 | 1.6 | 8.0 | 0.00 | 0.00 | 0.00 | 40 | 1018.4 |
| 20260503213555 | 18 | 0 | 0.0 | 4.8 | 0.00 | 0.00 | 0.00 | 44 | 1018.5 |
| 20260503213057 | 18 | 173 | 0.0 | 14.5 | 0.00 | 0.00 | 0.00 | 44 | 1018.5 |
| 20260503212555 | 18 | 208 | 3.2 | 17.7 | 0.00 | 0.00 | 0.00 | 43 | 1018.5 |
| 20260503212056 | 18 | 242 | 4.8 | 17.7 | 0.00 | 0.00 | 0.00 | 40 | 1018.7 |
| 20260503211553 | 18 | 315 | 1.6 | 8.0 | 0.00 | 0.00 | 0.00 | 40 | 1018.6 |
| 20260503211055 | 18 | 210 | 0.0 | 8.0 | 0.00 | 0.00 | 0.00 | 42 | 1018.7 |
| 20260503210556 | 18 | 262 | 1.6 | 6.4 | 0.00 | 0.00 | 0.00 | 48 | 1018.7 |
| 20260503210054 | 18 | 0 | 1.6 | 9.7 | 0.00 | 0.00 | 0.00 | 48 | 1018.7 |
| 20260503205555 | 18 | 281 | 1.6 | 9.7 | 0.00 | 0.00 | 0.00 | 42 | 1018.7 |
| 20260503205056 | 18 | 277 | 1.6 | 6.4 | 0.00 | 0.00 | 0.00 | 42 | 1018.7 |
| 20260503204554 | 18 | 342 | 0.0 | 6.4 | 0.00 | 0.00 | 0.00 | 42 | 1018.8 |
| 20260503204055 | 18 | 211 | 1.6 | 6.4 | 0.00 | 0.00 | 0.00 | 48 | 1018.9 |
| 20260503203555 | 18 | 189 | 0.0 | 6.4 | 0.00 | 0.00 | 0.00 | 46 | 1019.0 |
| 20260503203054 | 18 | 208 | 1.6 | 6.4 | 0.00 | 0.00 | 0.00 | 44 | 1019.2 |
| 20260503202556 | 18 | 202 | 0.0 | 4.8 | 0.00 | 0.00 | 0.00 | 43 | 1019.3 |
| 20260503202056 | 18 | 265 | 1.6 | 8.0 | 0.00 | 0.00 | 0.00 | 42 | 1019.6 |
| 20260503201556 | 18 | 179 | 1.6 | 8.0 | 0.00 | 0.00 | 0.00 | 39 | 1019.7 |
| 20260503201055 | 18 | 0 | 1.6 | 6.4 | 0.00 | 0.00 | 0.00 | 42 | 1019.8 |
| 20260503200555 | 18 | 187 | 1.6 | 11.3 | 0.00 | 0.00 | 0.00 | 44 | 1019.8 |
| 20260503200058 | 18 | 77 | 0.0 | 11.3 | 0.00 | 0.00 | 0.00 | 44 | 1020.0 |
| 20260503195556 | 18 | 280 | 1.6 | 8.0 | 0.00 | 0.00 | 0.00 | 44 | 1020.1 |
| 20260503195056 | 18 | 142 | 1.6 | 4.8 | 0.00 | 0.00 | 0.00 | 43 | 1020.2 |
| 20260503194616 | 18 | 216 | 1.6 | 4.8 | 0.00 | 0.00 | 0.00 | 44 | 1020.2 |
| 20260503194056 | 18 | 227 | 1.6 | 4.8 | 0.00 | 0.00 | 0.00 | 46 | 1020.3 |
| 20260503193557 | 18 | 197 | 0.0 | 6.4 | 0.00 | 0.00 | 0.00 | 45 | 1020.5 |
| 20260503193056 | 18 | 191 | 0.0 | 6.4 | 0.00 | 0.00 | 0.00 | 45 | 1020.6 |
| 20260503192556 | 18 | 196 | 0.0 | 4.8 | 0.00 | 0.00 | 0.00 | 46 | 1020.7 |
| 20260503192059 | 18 | 167 | 1.6 | 4.8 | 0.00 | 0.00 | 0.00 | 49 | 1020.7 |
| 20260503191601 | 18 | 0 | 1.6 | 6.4 | 0.00 | 0.00 | 0.00 | 44 | 1020.9 |
| 20260503191056 | 17 | 217 | 0.0 | 8.0 | 0.00 | 0.00 | 0.00 | 47 | 1021.0 |
| 20260503190556 | 17 | 277 | 1.6 | 8.0 | 0.00 | 0.00 | 0.00 | 47 | 1021.0 |
| 20260503190057 | 18 | 211 | 3.2 | 8.0 | 0.00 | 0.00 | 0.00 | 45 | 1021.1 |
| 20260503185555 | 17 | 235 | 1.6 | 8.0 | 0.00 | 0.00 | 0.00 | 50 | 1021.1 |
| 20260503185059 | 17 | 215 | 1.6 | 8.0 | 0.00 | 0.00 | 0.00 | 53 | 1021.2 |
| 20260503184557 | 17 | 231 | 3.2 | 11.3 | 0.00 | 0.00 | 0.00 | 50 | 1021.1 |
| 20260503184056 | 17 | 199 | 1.6 | 11.3 | 0.00 | 0.00 | 0.00 | 54 | 1021.3 |
| 20260503183556 | 17 | 0 | 1.6 | 11.3 | 0.00 | 0.00 | 0.00 | 53 | 1021.3 |
| 20260503183101 | 17 | 197 | 1.6 | 8.0 | 0.00 | 0.00 | 0.00 | 53 | 1021.3 |
| 20260503182555 | 17 | 220 | 3.2 | 6.4 | 0.00 | 0.00 | 0.00 | 50 | 1021.3 |
| 20260503182055 | 17 | 178 | 1.6 | 4.8 | 0.00 | 0.00 | 0.00 | 53 | 1021.4 |
| 20260503181607 | 17 | 220 | 1.6 | 8.0 | 0.00 | 0.00 | 0.00 | 51 | 1021.4 |
| 20260503181059 | 17 | 234 | 1.6 | 8.0 | 0.00 | 0.00 | 0.00 | 54 | 1021.4 |
| 20260503180555 | 17 | 195 | 1.6 | 6.4 | 0.00 | 0.00 | 0.00 | 52 | 1021.5 |
| 20260503180054 | 16 | 207 | 0.0 | 8.0 | 0.00 | 0.00 | 0.00 | 54 | 1021.6 |
| 20260503175555 | 16 | 177 | 3.2 | 8.0 | 0.00 | 0.00 | 0.00 | 51 | 1021.6 |
| 20260503175059 | 17 | 176 | 3.2 | 8.0 | 0.00 | 0.00 | 0.00 | 50 | 1021.6 |
| 20260503174613 | 17 | 217 | 0.0 | 6.4 | 0.00 | 0.00 | 0.00 | 52 | 1021.7 |
| 20260503174059 | 17 | 163 | 1.6 | 6.4 | 0.00 | 0.00 | 0.00 | 51 | 1021.6 |
| 20260503173556 | 17 | 199 | 1.6 | 8.0 | 0.00 | 0.00 | 0.00 | 54 | 1021.7 |
| 20260503173058 | 16 | 0 | 0.0 | 8.0 | 0.00 | 0.00 | 0.00 | 55 | 1021.7 |
| 20260503172557 | 16 | 163 | 0.0 | 8.0 | 0.00 | 0.00 | 0.00 | 56 | 1021.9 |
| 20260503172055 | 16 | 178 | 0.0 | 8.0 | 0.00 | 0.00 | 0.00 | 58 | 1021.9 |
| 20260503171558 | 16 | 202 | 1.6 | 9.7 | 0.00 | 0.00 | 0.00 | 54 | 1022.0 |
| 20260503171055 | 16 | 171 | 3.2 | 9.7 | 0.00 | 0.00 | 0.00 | 51 | 1022.0 |
| 20260503170556 | 16 | 221 | 1.6 | 8.0 | 0.00 | 0.00 | 0.00 | 53 | 1021.9 |
| 20260503170107 | 16 | 190 | 0.0 | 8.0 | 0.00 | 0.00 | 0.00 | 53 | 1022.1 |